Tracking 25648 objects as of 17-May-2022
HD Live streaming from Space Station
objects crossing your sky now

CZ-4C DEB

Track CZ-4C DEB now!
10-day predictions


NORAD ID: 37567
Int'l Code: 2010-038C
Perigee: 584.7 km
Apogee: 788.0 km
Inclination: 97.8 °
Period: 98.3 minutes
Semi major axis: 7057 km
RCS: 0.0012 m2 (small)
Launch date: August 9, 2010
Source: People's Republic of China (PRC)
Launch site: Taiyaun Space Center, China (TSC)

Note: This is SATELLITE DEBRIS
aabbcc
Your satellite tracking list
Your tracking list is empty




NASA's NSSDC Master Catalog

Two Line Element Set (TLE):
1 37567U 10038C   22136.87095042  .00005049  00000-0  82937-3 0  9999
2 37567  97.8152 359.6386 0144049  40.7975 332.7673 14.64342369621851
Source of the keplerian elements: AFSPC